TimePDT,TemperatureF,Dew PointF,Humidity,Sea Level PressureIn,VisibilityMPH,Wind Direction,Wind SpeedMPH,Gust SpeedMPH,PrecipitationIn,Events,Conditions,WindDirDegrees,DateUTC
12:56 AM,72.0,46.0,40,30.00,10.0,WSW,4.6,-,N/A,,Clear,250,2013-08-30 07:56:00
1:56 AM,72.0,46.9,41,30.00,10.0,Calm,Calm,-,N/A,,Clear,0,2013-08-30 08:56:00
2:56 AM,71.1,46.9,42,30.01,10.0,Calm,Calm,-,N/A,,Clear,0,2013-08-30 09:56:00
3:56 AM,66.9,46.9,49,30.01,10.0,SSE,4.6,-,N/A,,Clear,150,2013-08-30 10:56:00
4:56 AM,66.9,46.9,49,30.03,10.0,Calm,Calm,-,N/A,,Clear,0,2013-08-30 11:56:00
5:56 AM,66.0,46.9,50,30.06,10.0,Calm,Calm,-,N/A,,Mostly Cloudy,0,2013-08-30 12:56:00
6:56 AM,64.9,46.9,52,30.09,10.0,SE,4.6,-,N/A,,Mostly Cloudy,140,2013-08-30 13:56:00
7:56 AM,71.1,50.0,47,30.09,10.0,North,4.6,-,N/A,,Mostly Cloudy,350,2013-08-30 14:56:00
8:56 AM,70.0,51.1,51,30.10,10.0,NNE,3.5,-,N/A,,Mostly Cloudy,30,2013-08-30 15:56:00
9:56 AM,75.9,51.1,42,30.11,10.0,ENE,4.6,-,N/A,,Clear,60,2013-08-30 16:56:00
10:56 AM,79.0,52.0,39,30.10,10.0,Calm,Calm,-,N/A,,Clear,0,2013-08-30 17:56:00
11:56 AM,81.0,52.0,36,30.08,10.0,WNW,4.6,-,N/A,,Clear,300,2013-08-30 18:56:00
12:56 PM,84.0,52.0,33,30.06,10.0,NNW,6.9,-,N/A,,Clear,330,2013-08-30 19:56:00
1:56 PM,84.9,52.0,32,30.04,10.0,Calm,Calm,-,N/A,,Clear,0,2013-08-30 20:56:00
2:56 PM,86.0,51.1,30,30.02,10.0,WNW,5.8,-,N/A,,Clear,300,2013-08-30 21:56:00
3:56 PM,86.0,51.1,30,30.01,10.0,NW,9.2,-,N/A,,Clear,310,2013-08-30 22:56:00
4:56 PM,86.0,51.1,30,29.99,10.0,WNW,4.6,-,N/A,,Clear,300,2013-08-30 23:56:00
5:56 PM,84.9,50.0,30,29.98,10.0,NW,9.2,-,N/A,,Clear,320,2013-08-31 00:56:00
6:56 PM,82.9,48.0,29,29.98,10.0,WNW,8.1,-,N/A,,Clear,300,2013-08-31 01:56:00
7:56 PM,78.1,48.9,36,30.00,10.0,NNW,4.6,-,N/A,,Clear,340,2013-08-31 02:56:00
8:56 PM,77.0,48.0,36,30.01,10.0,Calm,Calm,-,N/A,,Clear,0,2013-08-31 03:56:00
9:56 PM,73.0,46.9,39,30.01,10.0,SSW,4.6,-,N/A,,Clear,210,2013-08-31 04:56:00
10:56 PM,70.0,46.0,42,30.02,10.0,South,4.6,-,N/A,,Clear,180,2013-08-31 05:56:00
11:56 PM,70.0,46.9,44,30.02,10.0,SW,6.9,-,N/A,,Clear,220,2013-08-31 06:56:00